Dauntless Aviation
Airports Europe Czech Republic
LKPO
PRV

Přerov Air Base

Přerov, CZECH REPUBLIC

Airport Info
Suggest Updated Information for this Airport

Location

Latitude / Longitude: 49°25'32"N / 17°24'16"E
  49°25.548'N / 17°24.282'E
  49.4258 / 17.4047

Nearby radio navigation aids

CK PREROV NDB. 63.6° 2.8nm from CK to field.

Runway Information

Runway 06 /24

Dimensions: 8202 x 196 ft.
Surface: ASP
 
Runway 06
Runway 24
Latitude: 49.421419 49.430439
Longitude: 17.389275 17.420478
Elevation: 663 ft. 663 ft.
Runway true heading: 64.6 244.6
 

Instrument Procedures

  Aerodrome Chart

IAPs (Instrument Approach Procedures)

  ILS/DME Rwy 06
  NDB/DME (GPS) or PAR Rwy 06
  NDB (GPS) or PAR Rwy 06
  POLOM 3A

Departure Procedures

  Instrument Departure Chart HLV 1A - 2Z
  Instrument Departure Chart LUTIM 2A - 2Z
  Instrument Departure Chart MORKO 2Z
  Instrument Departure Chart POLOM 3A
Satellite photo at:
Airport distance calculator
From:
Weather Reports

METAR

LKMT
31.3nm NE
LKMT 200500Z 21009KT 9999 FEW020 M01/M01 Q1010 NOSIG
LKTB
33.3nm SW
LKTB 200500Z 20004KT 6000 SN OVC035 M02/M02 Q1011 R27/39//94 NOSIG

TAF

LKMT
31.3nm NE
TAF LKMT 192300Z 2000/2106 22006KT 6000 BKN020 TEMPO 2000/2008 3000 BR OVC006 BECMG 2008/2011 9999 TEMPO 2012/2021 VRB02KT 1300 SN OVC004 BECMG 2021/2100 03005KT 3000 BR NSC
LKTB
33.3nm SW
TAF LKTB 192300Z 2000/2106 VRB02KT 9999 BKN023 BECMG 2008/2010 22006KT TEMPO 2007/2016 3000 -SN BKN020 BECMG 2020/2022 11006KT CAVOK BECMG 2102/2104 08007KT 3000 SN OVC013
Safelog

 

Dauntless Aviation

© 2007-2018 Dauntless Aviation, all rights reserved
Information provided via PilotNav comes from a variety of official and unofficial data sources. As errors are possible, do not use PilotNav for primary flight planning purposes. Verify any information that you receive via PilotNav with current and canonical charts and other official documents. The material in this database is subject to database copyrights held by Dauntless Aviation and may not be copied without the express permission of Dauntless Aviation - licenses for use of part of all of this data are available for purchase; enquire via the Dauntless Aviation helpdesk. A number of mechanisms and markers exist in the database to protect against and identify infringement / copyright. Automated queries against this website are stictly prohibited, and all activity is logged and analyzed.